Zurück zum Katalog

CZ-2D R/B

AktivSSO
NORAD 44548·ROCKET BODY·🇨🇳 China

Gestartet Sep 25, 2019 von Jiuquan Satellite Launch Center

Loading…

Nächste Überflüge (nächste 24 Stunden)

TLE

AktuellSource: Space-Track

Epoche: Sep 14, 2026, 14:23 UTC

1 44548U 19063B   26257.59946488  .00000129  00000-0  53693-4 0  9991
2 44548  98.3604 211.5105 0005982 241.4242 118.6346 14.40858245366437

Verfolge CZ-2D R/B in Echtzeit mit AllMySat

Download on the App Store